Weather in Ibiza

Spain     38°58′52″N   1°24′46″E
temp.,
°C
wind,
m/s
gust,
m/s
humid.,
%
clouds,
%
prec.,
mm/h
press.,
hPa
HPBL,
m
1 july, fri
fri123:00+22nnw11770 0.0 101378
02:00+22n22830 0.0 101496
05:00+22n47830 0.0 1014362
08:00+24ene787777 0.0 1015954
11:00+24e667365 0.1 1017757
14:00+26e55590 0.2 1018970
17:00+26ene65610 0.0 1017944
20:00+24ne56710 0.0 1017582
2 july, sat
sat223:00+23ese577644 0.0 1020505
02:00+23e577636 0.0 1018467
05:00+23ene5779100 0.0 1017395
08:00+24ne6872100 0.0 1018566
11:00+25e566253 0.0 1019751
14:00+27e79577 0.0 1018647
17:00+27e57566 0.0 1017543
20:00+26ene466352 0.0 1016364
3 july, sun
sun323:00+23ene1178100 0.0 101822
02:00+22n238266 0.0 101881
05:00+23ne348220 0.0 1016142
08:00+24nne2374100 0.0 1017171
11:00+27ene445786 0.0 1017547
14:00+28e445791 0.0 1018535
17:00+28e33571 0.0 1017442
20:00+27n23640 0.0 1016287
4 july, mon
mon423:00+24ne488026 0.0 1018239
02:00+24ese228253 0.0 101828
05:00+24nnw357981 0.0 1017176
08:00+24ene2478100 0.0 1017171
11:00+27se556899 0.0 1017400
14:00+30sw22595 0.0 1018622
17:00+30e33565 0.0 1017541
20:00+27ne44656 0.0 1016288
5 july, tue
tue523:00+25nne59815 0.0 1017193
02:00+24e34865 0.0 101771
05:00+24w228259 0.0 101818
08:00+25e477096 0.0 1015148
11:00+29ne455885 0.0 1017406
14:00+29e55565 0.0 1018493
17:00+30e325161 0.0 1017499
20:00+27ene45610 0.0 1016203